Details for Lufthansa Cargo at EDDF




Go Back


Latest METAR
Local Time

EDDF 252150Z 05007KT CAVOK 20/15 Q1018 NOSIG

26/05/2018, 00:20:48

Description
Results
Lufthansa Cargo Logo
Number of Pilots based at EDDF
0 Pilots Based here
Number of Lufthansa Cargo Flights Departed from EDDF
0 Flights Departed
Number of Lufthansa Cargo Flights Arrived at EDDF
0 Flights Arrived
Number of Lufthansa Cargo Schedules Departing from EDDF
55 Schedules
Number of Lufthansa Cargo Schedules Arriving at EDDF
67 Schedules
Number of Lufthansa Cargo Schedules Departing from EDDF availible today
16 Schedules Today
Number of Lufthansa Cargo Schedules Arriving at EDDF availible today
17 Schedules Today
Average Landing Rate at EDDF
-239 fpm
Lufthansa Cargo Average Landing Rate at EDDF
0 fpm
Total Fuel Purchased at EDDF by Lufthansa Cargo
0.00 kgs / 0.00 lbs

Pilots Based at EDDF


Pilot ID
Pilot Name
Pilot Rank
No. of Flights
No. of Flying Hours
There are no pilots assigned to this hub!   Will you be the first?
Content